Regional Weather Roundup
Issued by NWS

Home | Current Version | Previous Version | Graphics & Text | Print | Product List | Glossary On
Versions: 1 2 3 4 5 6 7 8 9 10 11 12 13 14 15 16 17 18 19 20 21 22 23 24 25 26 27 28 29 30 31 32 33 34 35 36 37 38 39 40 41 42 43 44 45 46 47 48 49 50
000
ASUS45 KSLC 252210
RWRUT

UTAH REGIONAL WEATHER ROUNDUP
NATIONAL WEATHER SERVICE SALT LAKE CITY UT
300 PM MST SUN JAN 25 2015

UTZ001>011-023>025-252300-

NORTHERN UTAH

CITY           SKY/WX    TMP DP  RH WIND       PRES   REMARKS
BRIGHAM CITY   SUNNY     47  30  51 W5        30.44S
HILL AFB       SUNNY     47  24  40 NW5       30.42S
LOGAN          SUNNY     42  33  70 CALM      30.43F
OGDEN          SUNNY     48  30  49 W6        30.42F
PROVO AIRPORT  MOSUNNY   43  27  52 VRB5      30.41F
SALT LAKE CITY MOSUNNY   51  34  52 VRB6      30.42S
VERNAL         MOSUNNY   42  22  44 E8        30.35F
WENDOVER       SUNNY     43  30  61 CALM      30.42F
HEBER CITY     SUNNY     45  32  61 CALM      30.40S
WEST JORDAN    SUNNY     50  34  53 CALM      30.41F

$$

UTZ012>022-026-027-252300-

SOUTHERN/CENTRAL UTAH

CITY           SKY/WX    TMP DP  RH WIND       PRES   REMARKS
BLANDING       SUNNY     57  24  27 N9        30.35S
BRYCE CANYON   SUNNY     52  30  43 NE14      30.36F
CEDAR CITY     SUNNY     54  30  40 N9        30.32F
DELTA          SUNNY     51  32  48 N5        30.39S
MILFORD        SUNNY     52  31  44 N17G24    30.36F
MOAB/CYNLANDS  SUNNY     47  19  33 NW5       30.32F
PRICE          SUNNY     50  22  33 VRB5      30.33F
ST GEORGE      CLEAR     63  30  29 NW5       30.25S
KANAB          SUNNY     61  23  23 E14       30.29F

$$

REGIONAL REPORTS     COLORADO/ARIZONA

CITY           SKY/WX    TMP DP  RH WIND       PRES   REMARKS
CRAIG, CO      PTSUNNY   42  28  57 E7        30.34S
GRAND JUNCTION PTSUNNY   48  20  32 NW6       30.32F
RIFLE          MOSUNNY   49  21  33 CALM      30.32F
MONTROSE       MOSUNNY   47  20  34 NW8       30.34S
CORTEZ         SUNNY     52  24  33 S13       30.25F
PAGE, AZ       NOT AVBL
GRAND CANYON   SUNNY     54  22  28 E17       30.32S
KINGMAN        SUNNY     66  25  21 N16       30.16F
FLAGSTAFF      SUNNY     53  20  27 NE14G23   30.30S

$$

REGIONAL REPORTS    NEVADA/IDAHO/WYOMING

CITY           SKY/WX    TMP DP  RH WIND       PRES   REMARKS
LAS VEGAS, NV  SUNNY     71  31  22 VRB3      30.14F
ELY            SUNNY     55  32  41 N14       30.36F
ELKO           SUNNY     53  33  46 VRB3      30.37F
POCATELLO, ID  PTSUNNY   42  34  73 NE7       30.42F
BURLEY         SUNNY     50  34  54 N3        30.37F
EVANSTON, WY   SUNNY     44  32  62 SW9       30.40F
ROCK SPRINGS   SUNNY     47  29  49 W20       30.31R
KEMMERER       SUNNY     41  32  70 W15       30.41R

$$



USA.gov is the U.S. government's official web portal to all federal, state and local government web resources and services.